JI1PZF-13 Weather Reports


time (UTC)temp
F
wind
direction
speed
knots
gust
knots
rain 1hr
in
rain 24hr
in
rain mn
in
humidity
%
barometer
mb
20260505153337 64 149 0.0 0.9 0.00 0.00 0.00 67 1024.4
20260505151824 64 223 0.0 0.0 0.00 0.00 0.00 67 1024.5
20260505140329 64 209 0.0 2.6 0.00 0.00 0.00 59 1024.8
20260505124821 64 102 0.0 1.7 0.00 0.00 0.00 57 1024.6
20260505123330 64 76 0.0 0.9 0.00 0.00 0.00 57 1024.6
20260505121839 64 94 0.0 2.6 0.00 0.00 0.00 56 1024.5
20260505120323 64 105 0.0 0.0 0.00 0.00 0.00 56 1024.5
20260505114833 64 314 0.0 1.7 0.00 0.00 0.00 55 1024.5
20260505113401 64 199 0.0 0.9 0.00 0.00 0.00 55 1024.5
20260505111823 64 219 0.0 10.4 0.00 0.00 0.00 54 1024.4
20260505110327 64 162 0.0 0.9 0.00 0.00 0.00 54 1024.2
20260505101845 66 84 0.0 1.7 0.00 0.00 0.00 46 1023.7
20260505100324 66 123 0.0 0.9 0.00 0.00 0.00 43 1023.4
20260505094850 66 81 0.0 0.9 0.00 0.00 0.00 42 1023.3
20260505093353 66 169 0.0 0.9 0.00 0.00 0.00 40 1023.3
20260505091834 66 191 0.0 7.0 0.00 0.00 0.00 42 1022.9
20260505090319 67 107 0.0 0.9 0.00 0.00 0.00 47 1022.7
20260505084844 67 97 0.0 0.9 0.00 0.00 0.00 45 1022.5
20260505083329 68 194 0.0 6.1 0.00 0.00 0.00 47 1022.4
20260505081831 69 207 0.0 2.6 0.00 0.00 0.00 46 1022.3
20260505080356 70 169 0.0 8.7 0.00 0.00 0.00 44 1022.3
20260505073330 72 159 0.0 0.9 0.00 0.00 0.00 38 1021.8
20260505071834 73 80 0.0 7.8 0.00 0.00 0.00 32 1021.6
20260505070401 73 111 0.0 0.9 0.00 0.00 0.00 30 1021.5
20260505064824 74 234 0.0 1.7 0.00 0.00 0.00 26 1021.4
20260505063334 74 92 0.0 0.9 0.00 0.00 0.00 23 1021.2
20260505061819 74 131 0.0 0.9 0.00 0.00 0.00 22 1021.2
20260505060323 75 103 0.0 0.9 0.00 0.00 0.00 21 1021.0
20260505054828 75 204 0.0 0.9 0.00 0.00 0.00 21 1021.0
20260505053338 75 63 0.0 7.0 0.00 0.00 0.00 22 1021.0
20260505051845 76 107 0.0 0.9 0.00 0.00 0.00 22 1021.1
20260505050325 76 211 0.0 0.9 0.00 0.00 0.00 19 1021.3
20260505040345 74 282 0.0 0.9 0.00 0.00 0.00 21 1021.5
20260505034823 73 52 0.0 0.0 0.00 0.00 0.00 21 1021.6
20260505033330 74 181 0.0 0.9 0.00 0.00 0.00 21 1021.5
20260505031856 73 306 0.0 1.7 0.00 0.00 0.00 22 1021.6
20260505030320 72 74 0.0 0.9 0.00 0.00 0.00 22 1021.7
20260505024824 71 21 0.0 0.9 0.00 0.00 0.00 22 1021.6
20260505023346 71 73 0.0 0.9 0.00 0.00 0.00 24 1021.7
20260505021833 70 252 0.0 0.9 0.00 0.00 0.00 23 1021.8
20260505020344 70 296 0.0 1.7 0.00 0.00 0.00 24 1021.9
20260505014845 69 338 0.0 5.2 0.00 0.00 0.00 25 1021.8
20260505013329 69 304 0.0 0.9 0.00 0.00 0.00 25 1021.8
20260505011833 69 355 0.9 10.4 0.00 0.00 0.00 26 1021.6
20260505010335 68 351 0.0 0.9 0.00 0.00 0.00 27 1021.8
20260505004833 67 17 0.0 0.9 0.00 0.00 0.00 29 1021.6
20260505003339 66 290 0.0 2.6 0.00 0.00 0.00 30 1021.6
20260505001843 65 94 0.0 0.9 0.00 0.00 0.00 31 1021.5
20260505000320 65 287 0.0 1.7 0.00 0.00 0.00 32 1021.5
20260504234842 64 320 0.0 1.7 0.00 0.00 0.00 33 1021.5
20260504233320 64 304 0.0 11.3 0.00 0.00 0.00 33 1021.6
20260504231824 63 295 0.0 2.6 0.00 0.00 0.00 34 1021.5
20260504230328 62 281 0.0 3.5 0.00 0.00 0.00 36 1021.4
20260504224830 62 302 0.0 1.7 0.00 0.00 0.00 37 1021.3
20260504223335 62 296 0.0 1.7 0.00 0.00 0.00 38 1021.0
20260504221838 61 288 0.0 8.7 0.00 0.00 0.00 39 1021.0
20260504220320 60 279 0.0 8.7 0.00 0.00 0.00 41 1020.9
20260504214843 60 286 0.0 4.3 0.00 0.04 0.00 42 1020.7
20260504213323 59 304 0.0 1.7 0.00 0.04 0.00 42 1020.5
20260504211830 59 253 0.0 0.9 0.00 0.04 0.00 42 1020.3
20260504210333 58 298 0.0 0.9 0.00 0.04 0.00 43 1019.9
20260504204836 58 328 0.0 0.9 0.00 0.35 0.00 43 1019.5
20260504203337 58 302 0.0 0.9 0.00 0.35 0.00 44 1019.2
20260504201821 58 276 0.0 0.0 0.00 0.35 0.00 45 1018.9
20260504200324 58 248 0.0 9.6 0.00 0.35 0.00 45 1018.5
20260504194828 58 344 0.0 0.9 0.00 0.39 0.00 45 1018.0
20260504193335 58 275 0.0 0.9 0.00 0.39 0.00 45 1017.7
20260504191820 58 269 0.0 1.7 0.00 0.39 0.00 45 1017.3
20260504190326 58 275 0.0 2.6 0.00 0.39 0.00 46 1016.9
20260504184833 58 269 0.0 4.3 0.00 0.71 0.00 46 1016.6
20260504183402 58 325 0.0 2.6 0.00 0.71 0.00 47 1016.5
20260504181821 58 319 0.0 7.8 0.00 0.71 0.00 47 1016.0
20260504180326 58 240 0.0 4.3 0.00 0.71 0.00 48 1015.8
20260504174829 58 261 0.0 13.0 0.00 0.71 0.00 47 1015.4
20260504173356 58 300 0.0 11.3 0.00 0.71 0.00 47 1015.0
20260504171843 58 283 0.0 4.3 0.00 0.71 0.00 47 1014.6
20260504170321 58 284 0.0 3.5 0.00 0.71 0.00 46 1014.3
20260504160322 60 338 0.0 13.0 0.00 0.71 0.00 45 1013.1